Content
SEND FEEDBACK

Daily
Averages
Monthly
Summary
United States of America

CAMP QUEZON, GUAM


Home > North America > United States > Guam
Elevation: 269 feet     Latitude: 13 28N     Longitude: 144 48E

WEATHER
 
SELECT A DAY
Number of Records: 215,568;   Date Range: 1/1/95 - 12/19/14
 
SHARE

PRINT THIS DATA

[ ← Previous Day ]
WEATHER ALMANAC - JULY 11, 2014
[ Next Day → ]
[ °C ]   °F
Weather ElementAverageHighLow
Temperature80.1 °F87.1 °F (10:54 am)77 °F (12:54 pm)
Dewpoint76.3 °F79 °F (2:54 pm)73.4 °F (2:01 pm)
Humidity88.3 %94 % (11:54 pm)72 % (9:54 am)
Barometer29.83 in29.86 in (5:23 am)29.79 in (4:26 pm)
Wind Speed2.7 mph9.2 mph (12:54 am)
Weather ElementAverage
Visibility7.5 mi
Wind DirectionSE (131.4 °)

Weather ElementTotal
Precipitation4.38 in
Cooling Degree Days17.1 (Base 65)
Growing Degree Days32.1 (Base 50)
Averaged from 72 records on July 11, 2014
WEATHER CONDITIONS BREAKOUT
WIND DIRECTION BREAKOUT
WEATHER BY HOUR - JULY 11, 2014
[ °C ]   °F
Local TimeTemperatureDewpointHumidityBarometerVisibilityWind DirectionWind SpeedGust SpeedPrecipitationEventsConditions
1:54 AM82.0 °F77.0 °F85 %29.80 in10.0 miCalmPartly Cloudy
1:54 AM82.0 °F77.0 °F85 %29.80 in10.0 miCalmPartly Cloudy
2:54 AM79.0 °F77.0 °F94 %29.80 in10.0 miCalmPartly Cloudy
2:54 AM79.0 °F77.0 °F94 %29.80 in10.0 miCalmPartly Cloudy
3:30 AM77.0 °F73.4 °F89 %29.82 in5.0 miESE (120°)3.5 mph0.02 inRainHeavy Rain
3:30 AM77.0 °F73.4 °F89 %29.82 in5.0 miESE (120°)3.5 mph0.02 inRainHeavy Rain
3:54 AM79.0 °F75.9 °F90 %29.80 in10.0 miCalm0.04 inMostly Cloudy
3:54 AM79.0 °F75.9 °F90 %29.80 in10.0 miCalm0.04 inMostly Cloudy
4:54 AM78.1 °F75.9 °F93 %29.81 in10.0 miCalmClear
4:54 AM78.1 °F75.9 °F93 %29.81 in10.0 miCalmClear
5:54 AM78.1 °F75.0 °F90 %29.82 in10.0 miCalmClear
5:54 AM78.1 °F75.0 °F90 %29.82 in10.0 miCalmClear
6:54 AM80.1 °F77.0 °F90 %29.82 in10.0 miCalmPartly Cloudy
6:54 AM80.1 °F77.0 °F90 %29.82 in10.0 miCalmPartly Cloudy
7:54 AM82.9 °F79.0 °F88 %29.84 in10.0 miCalmClear
7:54 AM82.9 °F79.0 °F88 %29.84 in10.0 miCalmClear
8:54 AM84.9 °F77.0 °F77 %29.85 in10.0 miNorth (360°)3.5 mphPartly Cloudy
8:54 AM84.9 °F77.0 °F77 %29.85 in10.0 miNorth (360°)3.5 mphPartly Cloudy
9:54 AM87.1 °F77.0 °F72 %29.84 in10.0 miVariable3.5 mphScattered Clouds
9:54 AM87.1 °F77.0 °F72 %29.84 in10.0 miVariable3.5 mphScattered Clouds
10:54 AM82.9 °F77.0 °F82 %29.84 in9.0 miWest (280°)4.6 mph0.00 inRainLight Rain
10:54 AM82.9 °F77.0 °F82 %29.84 in9.0 miWest (280°)4.6 mph0.00 inRainLight Rain
11:01 AM82.4 °F78.8 °F89 %29.86 in6.0 miWest (280°)3.5 mph0.01 inRainRain
11:01 AM82.4 °F78.8 °F89 %29.86 in6.0 miWest (280°)3.5 mph0.01 inRainRain
11:30 AM82.4 °F75.2 °F79 %29.85 in2.5 miCalm0.05 inRainHeavy Rain
11:30 AM82.4 °F75.2 °F79 %29.85 in2.5 miCalm0.05 inRainHeavy Rain
11:33 AM82.4 °F75.2 °F79 %29.85 in4.0 miSE (140°)3.5 mph0.06 inRainRain
11:33 AM82.4 °F75.2 °F79 %29.85 in4.0 miSE (140°)3.5 mph0.06 inRainRain
11:54 AM82.0 °F78.1 °F88 %29.83 in2.5 miNE (40°)5.8 mph0.14 inRainHeavy Rain
11:54 AM82.0 °F78.1 °F88 %29.83 in2.5 miNE (40°)5.8 mph0.14 inRainHeavy Rain
12:21 PM78.8 °F75.2 °F89 %29.85 in1.8 miNorth (350°)8.1 mph0.21 inRainRain
12:21 PM78.8 °F75.2 °F89 %29.85 in1.8 miNorth (350°)8.1 mph0.21 inRainRain
12:25 PM78.8 °F75.2 °F89 %29.85 in3.0 miNorth (350°)9.2 mph0.22 inRainHeavy Rain
12:25 PM78.8 °F75.2 °F89 %29.85 in3.0 miNorth (350°)9.2 mph0.22 inRainHeavy Rain
12:35 PM80.6 °F77.0 °F89 %29.85 in2.5 miNNE (20°)4.6 mph0.28 inRainRain
12:35 PM80.6 °F77.0 °F89 %29.85 in2.5 miNNE (20°)4.6 mph0.28 inRainRain
12:43 PM80.6 °F77.0 °F89 %29.85 in4.0 miNNW (340°)4.6 mph0.30 inRainRain
12:43 PM80.6 °F77.0 °F89 %29.85 in4.0 miNNW (340°)4.6 mph0.30 inRainRain
12:54 PM80.1 °F77.0 °F90 %29.83 in10.0 miNNW (330°)4.6 mph0.31 inOvercast
12:54 PM80.1 °F77.0 °F90 %29.83 in10.0 miNNW (330°)4.6 mph0.31 inOvercast
1:38 PM78.8 °F75.2 °F89 %29.84 in2.0 miWSW (250°)8.1 mph0.04 inRainRain
1:38 PM78.8 °F75.2 °F89 %29.84 in2.0 miWSW (250°)8.1 mph0.04 inRainRain
1:47 PM78.8 °F75.2 °F89 %29.84 in4.0 miWest (270°)4.6 mph0.06 inRainRain
1:47 PM78.8 °F75.2 °F89 %29.84 in4.0 miWest (270°)4.6 mph0.06 inRainRain
1:54 PM78.1 °F75.0 °F90 %29.81 in4.0 miWSW (250°)4.6 mph0.08 inRainRain
1:54 PM78.1 °F75.0 °F90 %29.81 in4.0 miWSW (250°)4.6 mph0.08 inRainRain
2:54 PM79.0 °F75.0 °F88 %29.82 in5.0 miNNW (340°)5.8 mph0.07 inRainRain
2:54 PM79.0 °F75.0 °F88 %29.82 in5.0 miNNW (340°)5.8 mph0.07 inRainRain
3:03 PM78.8 °F75.2 °F89 %29.83 in9.0 miNNW (340°)4.6 mph0.01 inRainLight Rain
3:03 PM78.8 °F75.2 °F89 %29.83 in9.0 miNNW (340°)4.6 mph0.01 inRainLight Rain
3:23 PM78.8 °F75.2 °F89 %29.83 in10.0 miCalm0.03 inRainLight Rain
3:23 PM78.8 °F75.2 °F89 %29.83 in10.0 miCalm0.03 inRainLight Rain
3:37 PM78.8 °F75.2 °F89 %29.82 in10.0 miCalm0.03 inOvercast
3:37 PM78.8 °F75.2 °F89 %29.82 in10.0 miCalm0.03 inOvercast
3:54 PM79.0 °F75.9 °F90 %29.80 in10.0 miCalm0.05 inScattered Clouds
3:54 PM79.0 °F75.9 °F90 %29.80 in10.0 miCalm0.05 inScattered Clouds
4:54 PM80.1 °F75.9 °F87 %29.79 in10.0 miCalmPartly Cloudy
4:54 PM80.1 °F75.9 °F87 %29.79 in10.0 miCalmPartly Cloudy
5:54 PM80.1 °F78.1 °F94 %29.79 in10.0 miCalm0.00 inScattered Clouds
5:54 PM80.1 °F78.1 °F94 %29.79 in10.0 miCalm0.00 inScattered Clouds
6:54 PM80.1 °F75.9 °F87 %29.81 in10.0 miCalmScattered Clouds
6:54 PM80.1 °F75.9 °F87 %29.81 in10.0 miCalmScattered Clouds
7:54 PM79.0 °F75.9 °F90 %29.81 in10.0 miNW (320°)3.5 mphScattered Clouds
7:54 PM79.0 °F75.9 °F90 %29.81 in10.0 miNW (320°)3.5 mphScattered Clouds
8:54 PM79.0 °F77.0 °F94 %29.83 in10.0 miWNW (300°)3.5 mph0.00 inRainLight Rain
8:54 PM79.0 °F77.0 °F94 %29.83 in10.0 miWNW (300°)3.5 mph0.00 inRainLight Rain
9:54 PM79.0 °F77.0 °F94 %29.84 in10.0 miCalm0.01 inRainLight Rain
9:54 PM79.0 °F77.0 °F94 %29.84 in10.0 miCalm0.01 inRainLight Rain
10:54 PM79.0 °F77.0 °F94 %29.86 in10.0 miNE (50°)4.6 mph0.03 inRainLight Rain
10:54 PM79.0 °F77.0 °F94 %29.86 in10.0 miNE (50°)4.6 mph0.03 inRainLight Rain
11:54 PM79.0 °F77.0 °F94 %29.84 in7.0 miCalm0.14 inRainRain
11:54 PM79.0 °F77.0 °F94 %29.84 in7.0 miCalm0.14 inRainRain
Hourly data recorded from PGUM, located miles away from Camp Quezon, Guam







STORIES FROM OUR PARTNERS